Regional Weather Roundup
Issued by NWS

Home | Current Version | Previous Version | Graphics & Text | Print | Product List | Glossary On
Versions: 1 2 3 4 5 6 7 8 9 10 11 12 13 14 15 16 17 18 19 20 21 22 23 24 25 26 27 28 29 30 31 32 33 34 35 36 37 38 39 40 41 42 43 44 45 46 47 48 49 50
000
ASUS43 KLOT 271110
RWRIL

ILLINOIS REGIONAL WEATHER ROUNDUP
NATIONAL WEATHER SERVICE CHICAGO/ROMEOVILLE IL
500 AM CST THU NOV 27 2014

NOTE: "FAIR" INDICATES FEW OR NO CLOUDS BELOW 12,000 FEET WITH NO
SIGNIFICANT WEATHER AND/OR OBSTRUCTIONS TO VISIBILITY.

* THESE STATIONS ARE NOT UNDER NWS QUALITY CONTROL. THEY ALSO MAY NOT
  REPORT WEATHER SUCH AS PRECIPITATION OR FOG.

ILZ001-002-007-009-015-016-024-271200-
NORTHWEST ILLINOIS

CITY           SKY/WX    TMP DP  RH WIND       PRES   REMARKS
MOLINE         CLOUDY    26  19  74 NW7       30.35R WCI  18
STERLING*      CLOUDY    21  18  86 NW7       30.32R WCI  13
SAVANNA*       CLOUDY    26  19  77 NW5       30.32S WCI  20
$$

ILZ003-004-008-010-011-017-018-271200-
NORTH CENTRAL ILLINOIS

CITY           SKY/WX    TMP DP  RH WIND       PRES   REMARKS
ROCKFORD       LGT SNOW  21  17  84 NW9       30.30R FOG     WCI  11
FREEPORT*      CLOUDY    23  19  85 NW9       30.31R WCI  13
ROCHELLE*      CLOUDY    21  18  89 W8        30.29R WCI  11
DE KALB*       CLOUDY    20  17  88 NW12      30.26R FOG     WCI   8
PERU*          CLOUDY    25  21  87 W9        30.32R FOG     WCI  15
$$

ILZ005-006-012>014-019>023-271200-
NORTHEAST ILLINOIS

CITY           SKY/WX    TMP DP  RH WIND       PRES   REMARKS
CHICAGO-OHARE  FLURRIES  24  18  77 NW8       30.24R WCI  15
CHICAGO-MIDWAY CLOUDY    26  19  74 NW9       30.25R WCI  17
AURORA         CLOUDY    23  18  81 NW9       30.27R HAZE    WCI  13
LANSING*       CLOUDY    27  20  76 NW8       30.24R WCI  19
JOLIET*        CLOUDY    21  18  85 NW8       30.28R FOG     WCI  12
WAUKEGAN       CLOUDY    22  18  85 NW6       30.22S WCI  14
DUPAGE AIRPORT CLOUDY    22  17  81 NW8       30.25R WCI  12
KANKAKEE*      CLOUDY   N/A N/A N/A W10       30.27R
WHEELING       CLOUDY    23  18  81 NW8       30.26R WCI  14
MORRIS*        CLOUDY    23  20  91 W6        30.28R FOG     WCI  15
ROMEOVILLE*    CLOUDY    22  18  85 NW6       30.26R WCI  15
NORTHERLY ISL    N/A     26  19  75 W9          N/A  WCI  17
$$

LMZ740>746-271200-
SOUTHERN LAKE MICHIGAN

STATION/POSITION SKY/WX   TEMP    WIND        PRES    VSBY  WAVE
                          AIR SEA DIR/SP/G                  HT/PER
                          (F)     (DEG/KT/KT) (MB)    (MI)  (FT/S)
SOUTHERN BUOY              32 42  320/ 19/ 23 1023.0R         3/ 5
WAUKEGAN HARBOR            23     310/  9/ 11   N/A
HARRISON CRIB              26     320/ 17/ 20   N/A
BURNHAM HARBOR             26     280/  8/ 12   N/A
CALUMET HARBOR             26     280/  8/ 11 1022.7R
MICHIGAN CITY              32     290/ 21/ 24   N/A
$$

ILZ025>027-034>036-040-047-049-050-058-095>099-271200-
WEST-CENTRAL ILLINOIS

CITY           SKY/WX    TMP DP  RH WIND       PRES   REMARKS
QUINCY         CLOUDY    28  22  78 N14       30.39R WCI  17
GALESBURG*     CLOUDY    26  23  89 NW13      30.35R WCI  14
MACOMB*        CLOUDY    27  25  93 NW8       30.38S FOG     WCI  18
JACKSONVILLE*  CLOUDY    28  24  85 NW10      30.37S FOG     WCI  19
PITTSFIELD*    CLOUDY    29  26  87 NW12      30.39R WCI  19
$$

ILZ028>032-037-038-041>044-048-051>054-059>061-271200-
CENTRAL ILLINOIS

CITY           SKY/WX    TMP DP  RH WIND       PRES   REMARKS
PONTIAC        CLOUDY    24  21  88 NW13      30.30S FOG     WCI  12
BLOOMINGTON    MOCLDY    23  19  85 NW12      30.31R WCI  12
DECATUR        CLOUDY    23  19  85 NW13      30.32R WCI  11
PEORIA         CLOUDY    26  19  74 NW8       30.34R WCI  18
LACON*         CLOUDY    24  20  85 NW7       30.33R FOG     WCI  16
LINCOLN*       CLOUDY    26  22  85 W8        30.35R WCI  17
SPRINGFIELD    CLOUDY    25  20  81 W10       30.36R WCI  15
TAYLORVILLE    PTCLDY    23  19  86 N13       30.35R WCI  11
$$

ILZ033-039-045-046-055>057-062-063-271200-
EAST-CENTRAL ILLINOIS

CITY           SKY/WX    TMP DP  RH WIND       PRES   REMARKS
CHAMPAIGN      CLOUDY    25  21  85 NW16      30.29R WCI  12
DANVILLE*      CLOUDY    26  23  91 NW9       30.23S FOG     WCI  16
RANTOUL*       CLOUDY    25  22  86 NW14      30.28R FOG     WCI  13
MATTOON        MOCLDY    23  19  85 NW9       30.28R WCI  13
PARIS*         PTCLDY    24  22  93 NW6       30.28R FOG     WCI  17
$$

ILZ079-100>102-271200-
SOUTHWEST ILLINOIS

CITY           SKY/WX    TMP DP  RH WIND       PRES   REMARKS
ALTON          CLOUDY    28  24  84 NW9G16    30.38R WCI  19
BELLEVILLE     CLOUDY    29  28  96 NW9       30.38R WCI  21
CAHOKIA*       CLOUDY    31  25  78 NW16      30.39R WCI  20
SPARTA*        CLOUDY    30  26  86 NW12G18   30.38R WCI  20
$$

ILZ064>066-069>071-074>076-080>082-084>086-088>090-092>094-271200-
SOUTH-CENTRAL ILLINOIS

CITY           SKY/WX    TMP DP  RH WIND       PRES   REMARKS
CARBONDALE     CLOUDY    32  28  85 NW13G21   30.35R WCI  22
CAIRO*         CLOUDY    38  32  80 NW16      30.33R WCI  28
EFFINGHAM*     CLEAR     24  18  77 NW13      30.31R WCI  13
MARION         CLOUDY    32  30  93 NW7G16    30.34R WCI  26
MT. VERNON     CLOUDY    28  21  74 CALM      30.34R
CENTRALIA*     CLOUDY    28  24  85 N8        30.34R WCI  19
SALEM*           N/A     28  24  83 NW12      30.34R WCI  18
METROPOLIS*    CLOUDY    35  35 100 NW8         N/A  FOG     WCI  28
$$

ILZ067-068-072-073-078-083-087-091-271200-
SOUTHEAST ILLINOIS

CITY           SKY/WX    TMP DP  RH WIND       PRES   REMARKS
LAWRENCEVILLE  CLOUDY    29  24  82 NW15      30.29R WCI  18
FLORA*         PTCLDY    27  23  87 NW9       30.32R WCI  17
FAIRFIELD*     CLOUDY    28  25  86 NW7       30.31R FOG     WCI  21
HARRISBURG*    CLOUDY    32  31  96 NW8       30.33R WCI  25
ROBINSON*      CLOUDY    28  24  84 NW13G18   30.31R WCI  17
CARMI*         CLOUDY    32  31  98 N12       30.30R WCI  23
$$

ABBREVIATIONS USED IN REMARKS
   TC - TEMPERATURE IN CELSIUS
  WCI - WIND CHILL INDEX
   HX - HEAT INDEX
  VSB - VISIBILITY
$$



USA.gov is the U.S. government's official web portal to all federal, state and local government web resources and services.